,,Stat5,,Stat1,,Stat2,,Stat3,,Stat4,,Wind1,,Wind1,
time,status,PA1M_AVG,status,PR1M_SUM,status,RH1M_AVG,status,SR1M_AVG,status,TA1M_AVG,status,W1dAve1m,status,W1sAve1m,
2000-12-12, 00:00:00,VALID,918.004,VALID,0,VALID,96.6013,VALID,0.0339617,VALID,19.8548,VALID,127,VALID,0.266276,
2000-12-12, 00:01:00,VALID,918.004,VALID,0,VALID,96.5873,VALID,0.0339617,VALID,19.8516,VALID,119,VALID,0.719806,
2000-12-12, 00:02:00,VALID,918.019,VALID,0,VALID,96.6241,VALID,0.0679233,VALID,19.8322,VALID,123,VALID,0.703125,
2000-12-12, 00:03:00,VALID,918.023,VALID,0,VALID,96.6776,VALID,0.0339617,VALID,19.816,VALID,123,VALID,0.391426,
2000-12-12, 00:04:00,VALID,918.016,VALID,0,VALID,96.7119,VALID,0.0169808,VALID,19.8061,VALID,131,VALID,0.425998,
2000-12-12, 00:05:00,VALID,917.999,VALID,0,VALID,96.7449,VALID,0.0339617,VALID,19.7964,VALID,140,VALID,0.50625,
2000-12-12, 00:06:00,VALID,917.978,VALID,0,VALID,96.7767,VALID,0.0679233,VALID,19.7735,VALID,146,VALID,0.503689,
2000-12-12, 00:07:00,VALID,917.963,VALID,0,VALID,96.8429,VALID,0.0509425,VALID,19.7566,VALID,147,VALID,0.367405,
2000-12-12, 00:08:00,VALID,917.964,VALID,0,VALID,96.9039,VALID,0.0339617,VALID,19.7512,VALID,146,VALID,0.269866,
2000-12-12, 00:09:00,VALID,917.97,VALID,0,VALID,96.9726,VALID,0.0849042,VALID,19.7353,VALID,146,VALID,0.093316,
2000-12-12, 00:10:00,VALID,917.962,VALID,0,VALID,97.0425,VALID,0.0509425,VALID,19.7318,VALID,146,VALID,0,
2000-12-12, 00:11:00,VALID,917.953,VALID,0,VALID,97.0997,VALID,0.0849042,VALID,19.735,VALID,146,VALID,0,
2000-12-12, 00:12:00,VALID,917.95,VALID,0,VALID,97.1175,VALID,0.0509425,VALID,19.742,VALID,146,VALID,0,
2000-12-12, 00:13:00,VALID,917.943,VALID,0,VALID,97.1163,VALID,0.0509425,VALID,19.7253,VALID,146,VALID,0,
2000-12-12, 00:14:00,VALID,917.944,VALID,0,VALID,97.1608,VALID,0.0509425,VALID,19.7323,VALID,146,VALID,0,
2000-12-12, 00:15:00,VALID,917.923,VALID,0,VALID,97.2027,VALID,0.0849042,VALID,19.7387,VALID,146,VALID,0,
2000-12-12, 00:16:00,VALID,917.905,VALID,0,VALID,97.2269,VALID,0.0509425,VALID,19.7487,VALID,170,VALID,0.0253378,
2000-12-12, 00:17:00,VALID,917.894,VALID,0,VALID,97.2523,VALID,0.0509425,VALID,19.742,VALID,214,VALID,0,
2000-12-12, 00:18:00,VALID,917.873,VALID,0,VALID,97.3032,VALID,0.0339617,VALID,19.7447,VALID,214,VALID,0,
2000-12-12, 00:19:00,VALID,917.878,VALID,0,VALID,97.3451,VALID,0.0169808,VALID,19.7554,VALID,214,VALID,0,
2000-12-12, 00:20:00,VALID,917.894,VALID,0,VALID,97.368,VALID,-0.0509425,VALID,19.7658,VALID,215,VALID,0,
2000-12-12, 00:21:00,VALID,917.903,VALID,0,VALID,97.396,VALID,-0.0509425,VALID,19.7631,VALID,216,VALID,0,
2000-12-12, 00:22:00,VALID,917.9,VALID,0,VALID,97.3973,VALID,-0.0169808,VALID,19.7658,VALID,217,VALID,0,
2000-12-12, 00:23:00,VALID,917.908,VALID,0,VALID,97.4049,VALID,-0.0509425,VALID,19.7666,VALID,217,VALID,0,
2000-12-12, 00:24:00,VALID,917.912,VALID,0,VALID,97.4075,VALID,-0.0339617,VALID,19.7559,VALID,217,VALID,0,
2000-12-12, 00:25:00,VALID,917.927,VALID,0,VALID,97.4329,VALID,-0.0339617,VALID,19.7596,VALID,217,VALID,0,
2000-12-12, 00:26:00,VALID,917.92,VALID,0,VALID,97.4634,VALID,-0.0849042,VALID,19.7594,VALID,217,VALID,0,
2000-12-12, 00:27:00,VALID,917.915,VALID,0,VALID,97.4799,VALID,-0.0679233,VALID,19.7623,VALID,217,VALID,0,
2000-12-12, 00:28:00,VALID,917.91,VALID,0,VALID,97.4812,VALID,-0.0679233,VALID,19.7663,VALID,217,VALID,0,
2000-12-12, 00:29:00,VALID,917.901,VALID,0,VALID,97.4774,VALID,-0.0679233,VALID,19.7596,VALID,221,VALID,0,
2000-12-12, 00:30:00,VALID,917.875,VALID,0,VALID,97.4774,VALID,-0.0849042,VALID,19.7725,VALID,222,VALID,0,
2000-12-12, 00:31:00,VALID,917.863,VALID,0,VALID,97.4927,VALID,-0.0849042,VALID,19.7725,VALID,222,VALID,0,
2000-12-12, 00:32:00,VALID,917.845,VALID,0,VALID,97.513,VALID,-0.0679233,VALID,19.7691,VALID,222,VALID,0,
2000-12-12, 00:33:00,VALID,917.837,VALID,0,VALID,97.4965,VALID,-0.0679233,VALID,19.779,VALID,222,VALID,0,
2000-12-12, 00:34:00,VALID,917.818,VALID,0,VALID,97.4647,VALID,0.0169808,VALID,19.7884,VALID,222,VALID,0,
2000-12-12, 00:35:00,VALID,917.812,VALID,0,VALID,97.4583,VALID,0.0339617,VALID,19.7743,VALID,222,VALID,0,
2000-12-12, 00:36:00,VALID,917.802,VALID,0,VALID,97.4469,VALID,0.0509425,VALID,19.7745,VALID,222,VALID,0,
2000-12-12, 00:37:00,VALID,917.791,VALID,0,VALID,97.4431,VALID,0.0679233,VALID,19.7614,VALID,222,VALID,0,
2000-12-12, 00:38:00,VALID,917.786,VALID,0,VALID,97.4609,VALID,0.0169808,VALID,19.7576,VALID,222,VALID,0,
2000-12-12, 00:39:00,VALID,917.785,VALID,0,VALID,97.4583,VALID,0.0339617,VALID,19.7517,VALID,222,VALID,0,
2000-12-12, 00:40:00,VALID,917.774,VALID,0,VALID,97.4507,VALID,0,VALID,19.7519,VALID,222,VALID,0,
2000-12-12, 00:41:00,VALID,917.773,VALID,0,VALID,97.4253,VALID,0.0169808,VALID,19.739,VALID,222,VALID,0,
2000-12-12, 00:42:00,VALID,917.744,VALID,0,VALID,97.4024,VALID,0.0509425,VALID,19.7323,VALID,223,VALID,0,
2000-12-12, 00:43:00,VALID,917.741,VALID,0,VALID,97.4011,VALID,0.0169808,VALID,19.7194,VALID,223,VALID,0,
2000-12-12, 00:44:00,VALID,917.715,VALID,0,VALID,97.4431,VALID,0.0339617,VALID,19.7231,VALID,226,VALID,0,
2000-12-12, 00:45:00,VALID,917.699,VALID,0,VALID,97.4507,VALID,0.0509425,VALID,19.7164,VALID,237,VALID,0,
2000-12-12, 00:46:00,VALID,917.686,VALID,0,VALID,97.4736,VALID,0,VALID,19.7005,VALID,243,VALID,0,
2000-12-12, 00:47:00,VALID,917.69,VALID,0,VALID,97.4888,VALID,0.0169808,VALID,19.687,VALID,243,VALID,0,
2000-12-12, 00:48:00,VALID,917.694,VALID,0,VALID,97.4939,VALID,0.0169808,VALID,19.6741,VALID,243,VALID,0,
2000-12-12, 00:49:00,VALID,917.698,VALID,0,VALID,97.485,VALID,0.0339617,VALID,19.6545,VALID,243,VALID,0,
2000-12-12, 00:50:00,VALID,917.703,VALID,0,VALID,97.4888,VALID,0.0339617,VALID,19.6413,VALID,243,VALID,0,
2000-12-12, 00:51:00,VALID,917.702,VALID,0,VALID,97.4952,VALID,0.0169808,VALID,19.6319,VALID,243,VALID,0,
2000-12-12, 00:52:00,VALID,917.68,VALID,0,VALID,97.4927,VALID,0.0169808,VALID,19.6319,VALID,246,VALID,0.110642,
2000-12-12, 00:53:00,VALID,917.667,VALID,0,VALID,97.4634,VALID,0,VALID,19.5993,VALID,236,VALID,0,
2000-12-12, 00:54:00,VALID,917.644,VALID,0,VALID,97.4596,VALID,0.0339617,VALID,19.5871,VALID,219,VALID,0,
2000-12-12, 00:55:00,VALID,917.62,VALID,0,VALID,97.4634,VALID,0.0169808,VALID,19.5772,VALID,215,VALID,0.517795,
2000-12-12, 00:56:00,VALID,917.602,VALID,0,VALID,97.5143,VALID,0.0169808,VALID,19.5675,VALID,215,VALID,0.62429,
2000-12-12, 00:57:00,VALID,917.591,VALID,0,VALID,97.5448,VALID,0.0339617,VALID,19.5476,VALID,205,VALID,0.355263,
2000-12-12, 00:58:00,VALID,917.579,VALID,0,VALID,97.6173,VALID,0.0169808,VALID,19.532,VALID,183,VALID,0.614732,
2000-12-12, 00:59:00,VALID,917.572,VALID,0,VALID,97.7177,VALID,0,VALID,19.5382,VALID,169,VALID,0.748851,
2000-12-12, 01:00:00,VALID,917.548,VALID,0,VALID,97.733,VALID,0.0169808,VALID,19.5387,VALID,154,VALID,0.843117,
2000-12-12, 01:01:00,VALID,917.531,VALID,0,VALID,97.6325,VALID,0,VALID,19.519,VALID,165,VALID,0.899704,
2000-12-12, 01:02:00,VALID,917.518,VALID,0,VALID,97.6338,VALID,0.0169808,VALID,19.487,VALID,175,VALID,0.897949,
2000-12-12, 01:03:00,VALID,917.499,VALID,0,VALID,97.7304,VALID,0,VALID,19.4644,VALID,187,VALID,0.862413,
2000-12-12, 01:04:00,VALID,917.503,VALID,0,VALID,97.8373,VALID,0,VALID,19.4646,VALID,197,VALID,0.750434,
2000-12-12, 01:05:00,VALID,917.501,VALID,0,VALID,97.8741,VALID,0,VALID,19.4577,VALID,212,VALID,0.551847,
2000-12-12, 01:06:00,VALID,917.505,VALID,0,VALID,97.8729,VALID,0.0169808,VALID,19.448,VALID,206,VALID,0.745271,
2000-12-12, 01:07:00,VALID,917.495,VALID,0,VALID,97.8805,VALID,0.0339617,VALID,19.4415,VALID,204,VALID,0.627902,
2000-12-12, 01:08:00,VALID,917.482,VALID,0,VALID,97.8767,VALID,0,VALID,19.4286,VALID,204,VALID,0.409467,
2000-12-12, 01:09:00,VALID,917.466,VALID,0,VALID,97.8958,VALID,0.0169808,VALID,19.4221,VALID,195,VALID,0.56799,
2000-12-12, 01:10:00,VALID,917.458,VALID,0,VALID,97.9301,VALID,0.0169808,VALID,19.4288,VALID,184,VALID,0.565034,
2000-12-12, 01:11:00,VALID,917.436,VALID,0,VALID,97.9237,VALID,0.0169808,VALID,19.4191,VALID,171,VALID,0.557129,
2000-12-12, 01:12:00,VALID,917.416,VALID,0,VALID,97.8907,VALID,0,VALID,19.4065,VALID,164,VALID,0.61046,
2000-12-12, 01:13:00,VALID,917.394,VALID,0,VALID,97.9148,VALID,0,VALID,19.3998,VALID,163,VALID,0.696398,
2000-12-12, 01:14:00,VALID,917.377,VALID,0,VALID,97.8983,VALID,0,VALID,19.3901,VALID,161,VALID,0.79285,
2000-12-12, 01:15:00,VALID,917.368,VALID,0,VALID,97.9161,VALID,0.0169808,VALID,19.3739,VALID,155,VALID,0.766036,
2000-12-12, 01:16:00,VALID,917.358,VALID,0,VALID,97.9148,VALID,0.0339617,VALID,19.3548,VALID,166,VALID,0.92433,
2000-12-12, 01:17:00,VALID,917.361,VALID,0,VALID,97.9288,VALID,0.0339617,VALID,19.358,VALID,158,VALID,0.653722,
2000-12-12, 01:18:00,VALID,917.355,VALID,0,VALID,97.897,VALID,0,VALID,19.3354,VALID,148,VALID,0.603674,
2000-12-12, 01:19:00,VALID,917.367,VALID,0,VALID,97.9034,VALID,0.0679233,VALID,19.3289,VALID,140,VALID,0.500211,
2000-12-12, 01:20:00,VALID,917.367,VALID,0,VALID,97.9275,VALID,0.0169808,VALID,19.3158,VALID,154,VALID,0.60791,
2000-12-12, 01:21:00,VALID,917.375,VALID,0,VALID,97.9326,VALID,0.0169808,VALID,19.3192,VALID,162,VALID,0.566406,
2000-12-12, 01:22:00,VALID,917.366,VALID,0,VALID,97.8919,VALID,0.0169808,VALID,19.2994,VALID,192,VALID,0.58941,
2000-12-12, 01:23:00,VALID,917.364,VALID,0,VALID,97.8652,VALID,0.0169808,VALID,19.2897,VALID,196,VALID,0.555634,
2000-12-12, 01:24:00,VALID,917.337,VALID,0,VALID,97.925,VALID,0,VALID,19.2835,VALID,197,VALID,0.88898,
2000-12-12, 01:25:00,VALID,917.307,VALID,0,VALID,97.9314,VALID,0,VALID,19.28,VALID,208,VALID,0.69308,
2000-12-12, 01:26:00,VALID,917.289,VALID,0,VALID,97.9517,VALID,0.0339617,VALID,19.2867,VALID,213,VALID,0.808364,
2000-12-12, 01:27:00,VALID,917.268,VALID,0,VALID,97.9517,VALID,0.0169808,VALID,19.2703,VALID,200,VALID,0.729941,
2000-12-12, 01:28:00,VALID,917.269,VALID,0,VALID,97.9581,VALID,0,VALID,19.2872,VALID,188,VALID,0.66364,
2000-12-12, 01:29:00,VALID,917.267,VALID,0,VALID,97.9542,VALID,0,VALID,19.2872,VALID,176,VALID,0.443604,
2000-12-12, 01:30:00,VALID,917.259,VALID,0,VALID,97.9377,VALID,-0.0169808,VALID,19.2742,VALID,156,VALID,0.725043,
2000-12-12, 01:31:00,VALID,917.253,VALID,0,VALID,97.925,VALID,0,VALID,19.2643,VALID,170,VALID,0.660807,
2000-12-12, 01:32:00,VALID,917.253,VALID,0,VALID,97.9428,VALID,0,VALID,19.2638,VALID,179,VALID,0.619555,
2000-12-12, 01:33:00,VALID,917.239,VALID,0,VALID,97.9682,VALID,-0.0169808,VALID,19.2611,VALID,185,VALID,0.647615,
2000-12-12, 01:34:00,VALID,917.253,VALID,0,VALID,98.0064,VALID,0,VALID,19.2775,VALID,196,VALID,0.277902,
2000-12-12, 01:35:00,VALID,917.231,VALID,0,VALID,97.9937,VALID,0,VALID,19.2641,VALID,207,VALID,0.440947,
2000-12-12, 01:36:00,VALID,917.226,VALID,0,VALID,98.0293,VALID,0,VALID,19.2909,VALID,201,VALID,0.453547,
2000-12-12, 01:37:00,VALID,917.218,VALID,0,VALID,97.9937,VALID,0,VALID,19.2837,VALID,203,VALID,0.379223,
2000-12-12, 01:38:00,VALID,917.212,VALID,0,VALID,97.9453,VALID,0,VALID,19.2772,VALID,202,VALID,0.547607,
2000-12-12, 01:39:00,VALID,917.199,VALID,0,VALID,97.9555,VALID,0,VALID,19.2777,VALID,201,VALID,0.56901,
2000-12-12, 01:40:00,VALID,917.185,VALID,0,VALID,97.9479,VALID,0.0169808,VALID,19.2713,VALID,200,VALID,0.64388,
2000-12-12, 01:41:00,VALID,917.183,VALID,0,VALID,97.9555,VALID,0,VALID,19.2641,VALID,187,VALID,0.616477,
2000-12-12, 01:42:00,VALID,917.176,VALID,0,VALID,98.0674,VALID,0.0339617,VALID,19.2772,VALID,188,VALID,0.530839,
2000-12-12, 01:43:00,VALID,917.162,VALID,0,VALID,97.8169,VALID,0.0169808,VALID,19.2417,VALID,170,VALID,0.448884,
2000-12-12, 01:44:00,VALID,917.153,VALID,0,VALID,97.6719,VALID,0.0169808,VALID,19.2032,VALID,153,VALID,0.640395,
2000-12-12, 01:45:00,VALID,917.147,VALID,0,VALID,97.7673,VALID,0,VALID,19.1898,VALID,144,VALID,0.658573,
2000-12-12, 01:46:00,VALID,917.136,VALID,0,VALID,97.7037,VALID,0.0169808,VALID,19.1873,VALID,141,VALID,0.539907,
2000-12-12, 01:47:00,VALID,917.129,VALID,0,VALID,97.5639,VALID,0.0339617,VALID,19.1515,VALID,143,VALID,0.503174,
2000-12-12, 01:48:00,VALID,917.136,VALID,0,VALID,97.4253,VALID,0.0169808,VALID,19.0901,VALID,133,VALID,0.537109,
2000-12-12, 01:49:00,VALID,917.13,VALID,0,VALID,97.4354,VALID,0.0169808,VALID,19.0578,VALID,119,VALID,0.666233,
2000-12-12, 01:50:00,VALID,917.107,VALID,0,VALID,97.6605,VALID,0.0169808,VALID,19.025,VALID,125,VALID,0.727746,
2000-12-12, 01:51:00,VALID,917.088,VALID,0,VALID,97.9364,VALID,0.0509425,VALID,19.0543,VALID,140,VALID,0.743627,
2000-12-12, 01:52:00,VALID,917.074,VALID,0,VALID,98.1768,VALID,0.0679233,VALID,19.0993,VALID,151,VALID,0.688616,
2000-12-12, 01:53:00,VALID,917.066,VALID,0,VALID,98.3332,VALID,0,VALID,19.1515,VALID,160,VALID,0.788603,
2000-12-12, 01:54:00,VALID,917.058,VALID,0,VALID,98.4095,VALID,0,VALID,19.1902,VALID,164,VALID,0.546664,
2000-12-12, 01:55:00,VALID,917.063,VALID,0,VALID,98.3891,VALID,0.0169808,VALID,19.236,VALID,164,VALID,0.377323,
2000-12-12, 01:56:00,VALID,917.077,VALID,0,VALID,98.3192,VALID,0.0169808,VALID,19.2322,VALID,164,VALID,0.137939,
2000-12-12, 01:57:00,VALID,917.081,VALID,0,VALID,98.2607,VALID,0,VALID,19.2352,VALID,164,VALID,0,
2000-12-12, 01:58:00,VALID,917.079,VALID,0,VALID,98.1946,VALID,0.0169808,VALID,19.2489,VALID,164,VALID,0,
2000-12-12, 01:59:00,VALID,917.059,VALID,0,VALID,98.1297,VALID,0,VALID,19.2454,VALID,171,VALID,0.00118371,
2000-12-12, 02:00:00,VALID,917.058,VALID,0,VALID,98.117,VALID,0.0169808,VALID,19.2521,VALID,177,VALID,0,
2000-12-12, 02:01:00,VALID,917.062,VALID,0,VALID,98.0801,VALID,0.0169808,VALID,19.2486,VALID,177,VALID,0,
2000-12-12, 02:02:00,VALID,917.042,VALID,0,VALID,98.0305,VALID,0,VALID,19.2355,VALID,177,VALID,0,
2000-12-12, 02:03:00,VALID,917.04,VALID,0,VALID,97.9835,VALID,0,VALID,19.2424,VALID,177,VALID,0,
2000-12-12, 02:04:00,VALID,917.029,VALID,0,VALID,97.9034,VALID,0.0169808,VALID,19.2193,VALID,177,VALID,0,
2000-12-12, 02:05:00,VALID,917.001,VALID,0,VALID,97.8347,VALID,0.0509425,VALID,19.187,VALID,185,VALID,0,
2000-12-12, 02:06:00,VALID,916.98,VALID,0,VALID,97.9759,VALID,0.0509425,VALID,19.197,VALID,186,VALID,0,
2000-12-12, 02:07:00,VALID,916.97,VALID,0,VALID,98.07,VALID,0.0169808,VALID,19.1965,VALID,187,VALID,0,
2000-12-12, 02:08:00,VALID,916.94,VALID,0,VALID,98.1043,VALID,0.0509425,VALID,19.2193,VALID,191,VALID,0,
2000-12-12, 02:09:00,VALID,916.919,VALID,0,VALID,98.0954,VALID,0.0169808,VALID,19.2223,VALID,192,VALID,0,
2000-12-12, 02:10:00,VALID,916.903,VALID,0,VALID,98.0471,VALID,0.0169808,VALID,19.2161,VALID,191,VALID,0,
2000-12-12, 02:11:00,VALID,916.909,VALID,0,VALID,97.8309,VALID,0.0339617,VALID,19.1808,VALID,162,VALID,0.0824908,
2000-12-12, 02:12:00,VALID,916.897,VALID,0,VALID,97.471,VALID,0.0339617,VALID,19.0941,VALID,123,VALID,0.893792,
2000-12-12, 02:13:00,VALID,916.875,VALID,0,VALID,97.3808,VALID,0,VALID,19.026,VALID,115,VALID,1.00422,
2000-12-12, 02:14:00,VALID,916.872,VALID,0,VALID,97.8207,VALID,0,VALID,19.0419,VALID,122,VALID,0.880859,
2000-12-12, 02:15:00,VALID,916.867,VALID,0,VALID,98.0013,VALID,0.0169808,VALID,19.0585,VALID,134,VALID,0.67513,
2000-12-12, 02:16:00,VALID,916.862,VALID,0,VALID,98.1323,VALID,0,VALID,19.0714,VALID,141,VALID,0.640625,
2000-12-12, 02:17:00,VALID,916.856,VALID,0,VALID,98.2124,VALID,0,VALID,19.0742,VALID,152,VALID,0.680871,
2000-12-12, 02:18:00,VALID,916.835,VALID,0,VALID,98.3077,VALID,0.0169808,VALID,19.0807,VALID,157,VALID,0.630551,
2000-12-12, 02:19:00,VALID,916.836,VALID,0,VALID,98.2823,VALID,0.0169808,VALID,19.0742,VALID,162,VALID,0.580804,
2000-12-12, 02:20:00,VALID,916.826,VALID,0,VALID,98.2709,VALID,0.0169808,VALID,19.0488,VALID,162,VALID,0.577895,
2000-12-12, 02:21:00,VALID,916.826,VALID,0,VALID,98.2963,VALID,0,VALID,19.0324,VALID,162,VALID,0.647171,
2000-12-12, 02:22:00,VALID,916.83,VALID,0,VALID,98.3306,VALID,0.0339617,VALID,19.0198,VALID,162,VALID,0.56799,
2000-12-12, 02:23:00,VALID,916.825,VALID,0,VALID,98.3764,VALID,0,VALID,19.0001,VALID,162,VALID,0.454834,
2000-12-12, 02:24:00,VALID,916.834,VALID,0,VALID,98.4883,VALID,0,VALID,19.0068,VALID,189,VALID,0.500868,
2000-12-12, 02:25:00,VALID,916.831,VALID,0,VALID,98.5595,VALID,0.0339617,VALID,19.0292,VALID,204,VALID,0.735026,
2000-12-12, 02:26:00,VALID,916.82,VALID,0,VALID,98.5633,VALID,0.0169808,VALID,19.0322,VALID,214,VALID,1.01349,
2000-12-12, 02:27:00,VALID,916.795,VALID,0,VALID,98.5455,VALID,0,VALID,19.032,VALID,209,VALID,0.987664,
2000-12-12, 02:28:00,VALID,916.768,VALID,0,VALID,98.454,VALID,0.0339617,VALID,19.0103,VALID,198,VALID,0.717634,
2000-12-12, 02:29:00,VALID,916.743,VALID,0,VALID,98.4781,VALID,0.0169808,VALID,18.987,VALID,191,VALID,0.856618,
2000-12-12, 02:30:00,VALID,916.714,VALID,0,VALID,98.5315,VALID,0.0339617,VALID,18.9803,VALID,192,VALID,0.795186,
2000-12-12, 02:31:00,VALID,916.713,VALID,0,VALID,98.5137,VALID,0,VALID,18.9743,VALID,207,VALID,0.734375,
2000-12-12, 02:32:00,VALID,916.709,VALID,0,VALID,98.5443,VALID,0.0339617,VALID,18.9519,VALID,207,VALID,0.69751,
2000-12-12, 02:33:00,VALID,916.694,VALID,0,VALID,98.5862,VALID,0,VALID,18.9547,VALID,210,VALID,0.393446,
2000-12-12, 02:34:00,VALID,916.666,VALID,0,VALID,98.5506,VALID,0,VALID,18.9417,VALID,207,VALID,0.572917,
2000-12-12, 02:35:00,VALID,916.653,VALID,0,VALID,98.5392,VALID,0.0169808,VALID,18.9159,VALID,192,VALID,0.62429,
2000-12-12, 02:36:00,VALID,916.634,VALID,0,VALID,98.6396,VALID,0.0169808,VALID,18.9164,VALID,186,VALID,0.807566,
2000-12-12, 02:37:00,VALID,916.621,VALID,0,VALID,98.707,VALID,0,VALID,18.9288,VALID,189,VALID,0.897545,
2000-12-12, 02:38:00,VALID,916.607,VALID,0,VALID,98.7388,VALID,0.0509425,VALID,18.9415,VALID,192,VALID,1.0131,
2000-12-12, 02:39:00,VALID,916.595,VALID,0,VALID,98.7782,VALID,0.0339617,VALID,18.9621,VALID,195,VALID,0.943834,
2000-12-12, 02:40:00,VALID,916.593,VALID,0,VALID,98.7757,VALID,-0.0169808,VALID,18.9616,VALID,194,VALID,0.78674,
2000-12-12, 02:41:00,VALID,916.59,VALID,0,VALID,98.8011,VALID,0.0339617,VALID,18.9549,VALID,221,VALID,0.740723,
2000-12-12, 02:42:00,VALID,916.595,VALID,0,VALID,98.8202,VALID,0.0169808,VALID,18.9514,VALID,218,VALID,0.587674,
2000-12-12, 02:43:00,VALID,916.6,VALID,0,VALID,98.8406,VALID,0,VALID,18.9512,VALID,219,VALID,0.852648,
2000-12-12, 02:44:00,VALID,916.6,VALID,0,VALID,98.8507,VALID,0,VALID,18.9584,VALID,216,VALID,0.745502,
2000-12-12, 02:45:00,VALID,916.603,VALID,0,VALID,98.8533,VALID,0.0509425,VALID,18.9646,VALID,215,VALID,0.890625,
2000-12-12, 02:46:00,VALID,916.605,VALID,0,VALID,98.8851,VALID,0,VALID,18.9713,VALID,225,VALID,0.952902,
2000-12-12, 02:47:00,VALID,916.601,VALID,0,VALID,98.913,VALID,0,VALID,18.9874,VALID,219,VALID,0.758732,
2000-12-12, 02:48:00,VALID,916.608,VALID,0,VALID,98.8901,VALID,0,VALID,18.9745,VALID,222,VALID,0.841639,
2000-12-12, 02:49:00,VALID,916.602,VALID,0,VALID,98.8978,VALID,0,VALID,18.9715,VALID,229,VALID,0.839316,
2000-12-12, 02:50:00,VALID,916.607,VALID,0,VALID,98.9296,VALID,0,VALID,18.9711,VALID,221,VALID,0.981689,
2000-12-12, 02:51:00,VALID,916.604,VALID,0,VALID,98.9385,VALID,0.0339617,VALID,19.0001,VALID,219,VALID,1.02799,
2000-12-12, 02:52:00,VALID,916.595,VALID,0,VALID,98.927,VALID,0,VALID,18.9999,VALID,220,VALID,0.740234,
2000-12-12, 02:53:00,VALID,916.576,VALID,0,VALID,98.9054,VALID,0,VALID,19.0071,VALID,218,VALID,0.857244,
2000-12-12, 02:54:00,VALID,916.587,VALID,0,VALID,98.8851,VALID,0,VALID,19.0004,VALID,212,VALID,0.644531,
2000-12-12, 02:55:00,VALID,916.574,VALID,0,VALID,98.8456,VALID,0.0169808,VALID,18.9909,VALID,216,VALID,0.529911,
2000-12-12, 02:56:00,VALID,916.557,VALID,0,VALID,98.8278,VALID,0,VALID,18.9842,VALID,202,VALID,0.491268,
2000-12-12, 02:57:00,VALID,916.544,VALID,0,VALID,98.824,VALID,0.0169808,VALID,18.9845,VALID,194,VALID,0.328758,
2000-12-12, 02:58:00,VALID,916.526,VALID,0,VALID,98.7668,VALID,0.0169808,VALID,18.9618,VALID,192,VALID,0.194046,
2000-12-12, 02:59:00,VALID,916.506,VALID,0,VALID,98.6981,VALID,0,VALID,18.9196,VALID,184,VALID,0.151123,
2000-12-12, 03:00:01,VALID,916.486,VALID,0,VALID,98.674,VALID,0,VALID,18.8938,VALID,156,VALID,0.503472,
2000-12-12, 03:01:00,VALID,916.471,VALID,0,VALID,98.6714,VALID,0.0169808,VALID,18.894,VALID,151,VALID,0.651693,
2000-12-12, 03:02:00,VALID,916.461,VALID,0,VALID,98.6829,VALID,0.0339617,VALID,18.8871,VALID,141,VALID,0.778646,
2000-12-12, 03:03:00,VALID,916.45,VALID,0,VALID,98.6613,VALID,0.0849042,VALID,18.8741,VALID,136,VALID,0.865954,
2000-12-12, 03:04:00,VALID,916.438,VALID,0,VALID,98.6892,VALID,0.0339617,VALID,18.8905,VALID,135,VALID,0.958036,
2000-12-12, 03:05:00,VALID,916.428,VALID,0,VALID,98.6969,VALID,0.0169808,VALID,18.897,VALID,147,VALID,0.872013,
2000-12-12, 03:06:00,VALID,916.397,VALID,0,VALID,98.7108,VALID,0,VALID,18.9201,VALID,158,VALID,0.831081,
2000-12-12, 03:07:00,VALID,916.372,VALID,0,VALID,98.6803,VALID,0.0339617,VALID,18.9129,VALID,158,VALID,0.562289,
2000-12-12, 03:08:00,VALID,916.343,VALID,0,VALID,98.6422,VALID,0.0339617,VALID,18.9231,VALID,170,VALID,0.457275,
2000-12-12, 03:09:01,VALID,916.338,VALID,0,VALID,98.5837,VALID,0,VALID,18.9136,VALID,162,VALID,0.403646,
2000-12-12, 03:10:00,VALID,916.341,VALID,0,VALID,98.5023,VALID,0.0169808,VALID,18.8972,VALID,156,VALID,0.290365,
2000-12-12, 03:11:00,VALID,916.341,VALID,0,VALID,98.4489,VALID,0.0339617,VALID,18.8873,VALID,141,VALID,0.467803,
2000-12-12, 03:12:00,VALID,916.328,VALID,0,VALID,98.2454,VALID,0,VALID,18.8326,VALID,124,VALID,0.631785,
2000-12-12, 03:13:00,VALID,916.306,VALID,0,VALID,98.2111,VALID,0,VALID,18.8001,VALID,129,VALID,0.692857,
2000-12-12, 03:14:00,VALID,916.294,VALID,0,VALID,98.2658,VALID,0.0169808,VALID,18.8003,VALID,130,VALID,0.724954,
2000-12-12, 03:15:00,VALID,916.314,VALID,0,VALID,98.2925,VALID,0,VALID,18.81,VALID,126,VALID,0.513725,
2000-12-12, 03:16:00,VALID,916.344,VALID,0,VALID,98.3281,VALID,0.0169808,VALID,18.8098,VALID,125,VALID,0.166385,
2000-12-12, 03:17:01,VALID,916.364,VALID,0,VALID,98.3573,VALID,0,VALID,18.8359,VALID,134,VALID,0,
2000-12-12, 03:18:01,VALID,916.356,VALID,0,VALID,98.3357,VALID,0.0169808,VALID,18.8356,VALID,184,VALID,0,
2000-12-12, 03:19:00,VALID,916.352,VALID,0,VALID,98.3052,VALID,0,VALID,18.8259,VALID,184,VALID,0,
2000-12-12, 03:20:00,VALID,916.361,VALID,0,VALID,98.2938,VALID,0,VALID,18.8229,VALID,184,VALID,0,
2000-12-12, 03:21:00,VALID,916.371,VALID,0,VALID,98.3014,VALID,0.0169808,VALID,18.813,VALID,184,VALID,0,
2000-12-12, 03:22:00,VALID,916.375,VALID,0,VALID,98.2391,VALID,0,VALID,18.7934,VALID,184,VALID,0,
2000-12-12, 03:23:00,VALID,916.362,VALID,0,VALID,98.1857,VALID,0.0339617,VALID,18.7609,VALID,184,VALID,0,
2000-12-12, 03:24:00,VALID,916.354,VALID,0,VALID,98.1666,VALID,0,VALID,18.7618,VALID,184,VALID,0,
2000-12-12, 03:25:00,VALID,916.346,VALID,0,VALID,97.9759,VALID,0.0169808,VALID,18.7032,VALID,184,VALID,0,
2000-12-12, 03:26:01,VALID,916.353,VALID,0,VALID,97.9746,VALID,0,VALID,18.6711,VALID,184,VALID,0,
2000-12-12, 03:27:01,VALID,916.35,VALID,0,VALID,98.2429,VALID,0,VALID,18.7034,VALID,184,VALID,0,
2000-12-12, 03:28:00,VALID,916.349,VALID,0,VALID,98.4438,VALID,0.0169808,VALID,18.7583,VALID,184,VALID,0,
2000-12-12, 03:29:00,VALID,916.342,VALID,0,VALID,98.4769,VALID,0.0169808,VALID,18.7809,VALID,184,VALID,0,
2000-12-12, 03:30:00,VALID,916.359,VALID,0,VALID,98.4565,VALID,0.0169808,VALID,18.7872,VALID,184,VALID,0,
2000-12-12, 03:31:00,VALID,916.362,VALID,0,VALID,98.44,VALID,0.0169808,VALID,18.7772,VALID,186,VALID,0,
2000-12-12, 03:32:00,VALID,916.366,VALID,0,VALID,98.4476,VALID,0.0339617,VALID,18.7909,VALID,195,VALID,0,
2000-12-12, 03:33:00,VALID,916.353,VALID,0,VALID,98.468,VALID,0.0339617,VALID,18.7812,VALID,196,VALID,0,
2000-12-12, 03:34:00,VALID,916.328,VALID,0,VALID,98.4883,VALID,0,VALID,18.7876,VALID,199,VALID,0,
2000-12-12, 03:35:01,VALID,916.316,VALID,0,VALID,98.5621,VALID,0,VALID,18.801,VALID,200,VALID,0,
2000-12-12, 03:36:01,VALID,916.305,VALID,0,VALID,98.5951,VALID,0.0169808,VALID,18.8068,VALID,200,VALID,0.0451389,
2000-12-12, 03:37:00,VALID,916.28,VALID,0,VALID,98.6269,VALID,0,VALID,18.8165,VALID,208,VALID,0.48763,
2000-12-12, 03:38:00,VALID,916.279,VALID,0,VALID,98.6155,VALID,0,VALID,18.8165,VALID,205,VALID,0.347301,